Location: *
(28.2408°N, 53.4600°E)
Time: 21:03:33
(UTC+00:00)

ASTEX 1 - Pass Details

Date: 22 September 2019
Orbit: 720 x 744 km, 92.7° (Epoch: 18 October)

Event Time Altitude Azimuth Distance (km) Brightness Sun altitude
Rises 15:54:40 0° 1° (N) 3,131 6.8 -20.8°
Reaches altitude 10° 15:56:58 10° 358° (N) 2,208 6.0 -21.3°
Maximum altitude 16:01:47 63° 278° (W) 801 3.8 -22.3°
Drops below altitude 10° 16:06:35 10° 198° (SSW) 2,205 5.9 -23.4°
Sets 16:08:53 0° 195° (SSW) 3,126 6.7 -23.9°
